#timestamp,LO_Frequency,Hit,StdDev 
1626782415.5,286047002.6,N
1626782435.4,286047001.8,N
1626782455.2,286047002.6,N
1626782475.0,286047001.4,N
1626782475.9,286047001.4,N
1626782495.8,286047002.0,N
1626782515.6,286047001.6,N
1626782535.4,286047002.1,N
1626782555.3,286047002.5,N
1626782575.1,286047000.3,N
1626782595.9,286047000.2,N
1626782615.7,286047000.2,N
1626782635.5,286047002.7,N
1626782655.4,286046999.9,N
1626782675.2,286047002.5,N
1626782695.1,286047002.3,N
1626782696.0,286047002.3,N
1626782715.8,286047002.4,N
1626782735.6,286047002.0,N
1626782755.5,286047002.4,N
1626782775.3,286047002.3,N
1626782795.1,286047002.6,N
1626782815.9,286047001.4,N
1626782835.7,286047001.8,N
1626782855.6,286047001.8,N
1626782875.4,286047001.5,N
1626782895.2,286047004.2,Y
1626782915.1,286047002.1,P
1626782916.0,286047002.1,P
1626782935.8,286047000.7,N
1626782955.7,286047000.3,N
1626782975.5,286047000.8,N
1626782995.3,286047000.6,N
1626783015.2,286047000.4,N
1626783035.0,286047000.1,N
1626783035.9,286047000.1,N
1626783055.7,286046999.8,N
1626783075.6,286047000.1,N
1626783095.4,286047000.4,N
1626783115.3,286047000.5,N
1626783135.1,286047000.4,N
1626783136.0,286047000.4,N
1626783155.8,286047001.6,N
1626783175.7,286047002.2,Y
1626783195.5,286047001.9,P
1626783215.3,286046999.9,N
1626783235.2,286046999.9,N
1626783255.0,286046999.8,N
1626783255.9,286046999.8,N
1626783275.8,286047002.3,N
1626783295.6,286047000.9,N
1626783315.4,286047000.3,N
1626783335.3,286047001.1,N
1626783355.1,286046999.9,N
1626783375.9,286047000.0,N
1626783395.7,286047000.2,N
1626783415.5,286047000.0,N
1626783435.4,286047002.4,Y
1626783455.2,286047001.2,P
1626783475.0,286047001.0,N
1626783475.9,286047001.0,P
1626783495.8,286047002.6,Y
1626783515.6,286046999.7,P
1626783535.5,286047000.4,N
1626783555.3,286046999.8,N
1626783575.1,286047002.6,Y
1626783595.9,286047000.7,P
1626783615.7,286046998.3,P
1626783635.6,286046999.0,N
1626783655.4,286046998.4,N
1626783675.2,286046998.7,N
1626783695.1,286046999.0,N
1626783696.0,286046999.0,N
1626783715.8,286046999.5,N
1626783735.6,286046998.5,N
1626783755.5,286047001.1,N
1626783775.3,286047000.4,N
1626783795.2,286046999.9,N
1626783815.9,286047000.3,N
1626783835.7,286047002.2,N
1626783855.6,286047004.4,Y
1626783875.4,286047001.9,P
1626783895.2,286047001.7,N
1626783915.1,286047001.5,N
1626783916.0,286047001.5,N
1626783935.8,286046999.8,N
1626783955.7,286047000.4,N
1626783975.5,286047001.0,N
1626783995.3,286046998.2,N
1626784015.2,286046998.8,N
1626784035.0,286046998.4,N
1626784035.9,286046998.4,N
1626784055.8,286046998.6,N
1626784075.6,286046999.4,N
1626784095.4,286046998.7,N
1626784115.3,286046996.9,N
1626784135.1,286046997.1,N
1626784155.8,286046996.5,N
1626784175.7,286046996.9,N
1626784195.5,286046998.8,N
1626784215.3,286046998.8,N
1626784235.2,286046999.2,N
1626784255.0,286046998.3,N
1626784255.9,286046998.3,N
1626784275.8,286046998.1,N
1626784295.6,286046998.2,N
1626784315.4,286047000.9,N
1626784335.3,286047002.6,N
1626784355.1,286047000.1,N
1626784375.8,286047002.4,N
1626784395.7,286046999.9,N
1626784415.5,286047000.1,N
1626784435.4,286047002.4,N
1626784455.2,286047001.6,N
1626784475.0,286047003.5,N
1626784475.9,286047003.5,N
1626784495.8,286047004.1,N
1626784515.6,286047003.5,N
1626784535.4,286047003.3,N
1626784555.3,286047005.8,N
1626784575.1,286047005.5,N
1626784595.9,286047005.3,N
1626784615.7,286047004.6,N
1626784635.5,286047007.0,N
1626784655.4,286047006.8,N
1626784675.2,286047006.1,N
1626784695.0,286047009.1,N
1626784695.9,286047009.1,N
1626784715.8,286047008.9,N
1626784735.6,286047009.2,N
1626784755.5,286047007.1,N
1626784775.3,286047007.5,N
1626784795.1,286047006.9,N
1626784815.9,286047006.5,N
1626784835.7,286047007.1,N
1626784855.5,286047007.5,N
1626784875.4,286047007.1,N
1626784895.2,286047007.5,N
1626784915.1,286047007.1,N
1626784916.0,286047007.1,N
1626784935.8,286047007.3,N
1626784955.6,286047007.2,Y
1626784975.5,286047001.2,P
1626784995.3,286046999.6,N
1626785015.1,286046998.4,N
1626785035.9,286047001.1,N
1626785055.7,286047000.5,N
1626785075.6,286046998.3,N
1626785095.4,286047000.7,N
1626785115.2,286046998.6,N
1626785135.1,286047001.1,N
1626785136.0,286047001.1,N
1626785155.8,286046998.8,N
1626785175.7,286046999.4,N
1626785195.5,286046999.4,N
1626785215.3,286046999.4,N
1626785235.2,286046997.1,N
1626785255.0,286046997.7,N
1626785255.9,286046997.7,N
1626785275.7,286046996.8,N
1626785295.6,286046997.8,N
1626785315.4,286046997.4,N
1626785335.3,286046997.6,N
1626785355.1,286046995.6,N
1626785356.0,286046995.6,N
1626785375.8,286046995.2,N
1626785395.7,286046996.4,N
1626785415.5,286046993.5,N
1626785435.3,286046994.5,N
1626785455.2,286046994.8,N
1626785475.0,286046993.0,N
1626785475.9,286046993.0,N
1626785495.8,286046992.0,Y
1626785515.6,286046996.1,P
1626785535.4,286046994.8,P
1626785555.3,286046993.8,P
1626785575.1,286046994.3,Y
1626785595.9,286046997.0,P
1626785615.7,286046997.3,P
1626785635.5,286046999.2,N
1626785655.4,286046997.0,N
1626785675.2,286046996.5,Y
1626785695.0,286046999.9,P
1626785695.9,286046999.9,N
1626785715.8,286047000.1,N
1626785735.6,286047000.2,N
1626785755.5,286047000.6,N
1626785775.3,286047000.4,N
1626785795.1,286047000.8,N
1626785815.9,286046998.5,N
1626785835.7,286046998.6,N
1626785855.5,286047001.1,N
1626785875.4,286046998.1,N
1626785895.2,286047000.4,N
1626785915.1,286047001.2,N
1626785916.0,286047001.2,N
1626785935.8,286047001.2,N
1626785955.6,286047000.8,N
1626785975.5,286046998.4,N
1626785995.3,286046998.9,N
